Location: Darlington Observatory
(36.4817°N, 105.8156°W)
Time: 12:29:20
(UTC-07:00)

MOS 1 - Visible Passes

Search period start: 22 December 2014 00:00
Search period end: 01 January 2015 00:00
Orbit: 880 x 891 km, 99.2° (Epoch: 21 December)

Date Brightness Start Highest point End Pass type
(mag) Time Alt. Az. Time Alt. Az. Time Alt. Az.
22 Dec 5.4 04:23:54 10° NNE 04:29:15 41° E 04:34:34 10° S visible
22 Dec 5.2 06:05:47 10° NNW 06:10:19 25° WNW 06:14:50 10° WSW visible
22 Dec 7.3 17:36:49 10° WSW 17:39:42 14° W 17:42:36 10° WNW visible
23 Dec 5.5 04:22:19 10° NNE 04:27:39 40° E 04:32:55 10° SSE visible
23 Dec 5.2 06:04:08 10° NNW 06:08:44 26° WNW 06:13:19 10° WSW visible
23 Dec 7.2 17:35:02 10° SW 17:38:05 15° W 17:41:09 10° WNW visible
24 Dec 5.6 04:20:45 10° NNE 04:26:02 38° E 04:31:16 10° SSE visible
24 Dec 5.1 06:02:29 10° N 06:07:09 27° WNW 06:11:48 10° WSW visible
24 Dec 7.2 17:33:15 10° SW 17:36:28 15° W 17:39:42 10° WNW visible
25 Dec 5.6 04:19:11 10° NNE 04:24:26 37° E 04:29:37 10° SSE visible
25 Dec 5.1 06:00:51 10° N 06:05:34 28° WNW 06:10:17 10° WSW visible
25 Dec 7.2 17:31:29 10° SW 17:34:51 16° W 17:38:13 10° NW visible
26 Dec 5.7 04:17:38 10° NNE 04:22:49 36° E 04:27:58 10° SSE visible
26 Dec 5.0 05:59:12 10° N 06:03:59 29° WNW 06:08:45 10° SW visible
26 Dec 7.2 17:29:44 10° SW 17:33:13 17° W 17:36:45 10° NW visible
27 Dec 5.7 04:16:04 10° NNE 04:21:13 34° E 04:26:18 10° SSE visible
27 Dec 5.0 05:57:34 10° N 06:02:24 30° WNW 06:07:13 10° SW visible
27 Dec 7.1 17:27:59 10° SW 17:31:36 17° W 17:35:15 10° NW visible
28 Dec 5.8 04:14:30 10° NE 04:19:36 33° E 04:24:39 10° SSE visible
28 Dec 5.0 05:55:55 10° N 06:00:49 31° WNW 06:05:41 10° SW visible
28 Dec 7.1 17:26:15 10° SW 17:29:59 18° W 17:33:45 10° NW visible
29 Dec 5.9 04:12:57 10° NE 04:17:59 32° E 04:22:59 10° SSE visible
29 Dec 4.9 05:54:17 10° N 05:59:14 32° WNW 06:04:09 10° SW visible
29 Dec 7.1 17:24:31 10° SW 17:28:22 19° W 17:32:15 10° NW visible
30 Dec 5.9 04:11:23 10° NE 04:16:22 31° E 04:21:19 10° SSE visible
30 Dec 4.9 05:52:39 10° N 05:57:38 33° WNW 06:02:36 10° SW visible
30 Dec 7.1 17:22:47 10° SW 17:26:45 19° W 17:30:44 10° NW visible
31 Dec 6.0 04:09:50 10° NE 04:14:45 30° E 04:19:38 10° SSE visible
31 Dec 4.8 05:51:00 10° N 05:56:03 34° WNW 06:01:04 10° SW visible
31 Dec 7.0 17:21:04 10° SW 17:25:08 20° W 17:29:13 10° NW visible
